GFSNIL_925_spd_057.txt.gz
Wind_Speed
38 30 29 27 24 23 21 21 19 20 19 18 16 14 12 10 10 11 10 11 9 6
36 34 28 30 30 24 24 19 22 25 22 20 19 17 15 13 12 12 12 11 11 9
36 36 36 31 32 29 25 23 19 24 22 20 19 19 19 15 14 14 12 12 12 12
34 32 31 30 31 33 31 26 24 24 24 22 21 20 19 20 16 15 15 15 14 15
34 33 31 33 31 32 35 31 28 27 26 24 21 20 19 20 18 18 19 18 16 17
35 33 33 33 33 32 34 34 30 29 29 27 25 23 21 22 19 20 21 20 19 19
36 36 35 34 33 31 33 35 34 33 31 29 27 24 21 20 21 21 21 21 21 20
37 36 34 32 33 32 31 34 35 33 32 30 26 27 27 25 24 23 22 22 23 23
35 34 34 33 32 31 32 31 29 29 30 29 29 31 34 32 26 24 24 24 24 26
33 34 34 33 31 31 31 27 29 29 29 31 35 38 39 39 35 30 29 28 26 26
33 33 32 31 31 31 29 30 29 29 30 30 34 40 40 40 39 35 34 33 32 31
34 32 31 31 32 30 28 28 31 29 28 30 34 36 38 36 31 33 36 36 34 33
33 33 33 32 31 30 30 28 26 27 28 31 33 36 38 36 29 30 31 31 33 36
31 31 30 29 28 26 26 24 25 25 26 27 29 30 35 34 33 30 28 29 28 27

GFSNIL_925_spd_063.txt.gz
Wind_Speed
28 25 24 20 20 19 17 15 14 15 14 12 11 10 11 10 11 12 10 9 10 9
33 31 27 24 26 18 19 15 14 14 14 15 14 13 12 11 12 6 9 11 11 10
34 34 29 27 23 24 20 19 12 17 17 17 17 15 15 14 13 11 13 12 15 11
35 34 34 28 27 25 21 18 21 17 17 18 18 18 18 18 11 16 14 13 10 12
35 36 34 34 31 26 26 24 21 21 20 19 20 20 20 20 18 16 15 16 16 15
38 36 36 34 33 31 28 26 24 24 22 21 21 21 22 22 21 19 19 19 18 18
40 39 38 35 34 33 31 28 27 26 25 24 23 23 24 23 22 22 21 20 20 20
40 39 36 37 35 33 32 32 30 28 27 26 25 25 26 24 23 23 22 21 22 23
38 38 39 37 36 34 34 32 31 30 29 29 29 28 28 27 25 24 23 22 23 24
37 39 38 38 37 37 35 32 32 31 30 31 32 30 30 31 28 24 25 24 23 23
36 37 36 36 38 37 35 34 33 32 32 31 32 34 34 31 33 30 28 24 25 27
39 37 36 37 37 35 33 32 33 32 32 32 32 33 35 34 29 29 29 29 31 30
36 35 36 36 36 36 34 33 33 32 30 32 31 33 34 35 30 28 28 28 31 33
35 35 34 32 31 33 33 31 30 29 30 31 33 31 33 36 33 29 27 29 27 28

GFSNIL_925_spd_069.txt.gz
Wind_Speed
34 32 28 15 27 32 28 26 27 24 21 16 16 13 12 11 12 9 9 10 8 6
37 37 34 26 19 26 26 24 25 28 25 19 17 16 14 11 10 12 9 9 11 11
42 41 37 32 26 19 25 18 14 33 28 23 20 17 17 14 13 13 12 13 12 10
39 42 39 34 33 26 23 21 16 29 28 25 23 19 19 17 15 18 16 14 14 13
38 38 40 38 36 32 28 26 18 23 26 27 25 23 21 21 20 18 19 19 18 18
36 40 38 41 38 37 33 33 30 22 27 27 25 24 23 24 23 22 18 21 21 19
39 38 41 40 43 39 38 35 35 32 25 28 26 27 26 25 26 25 24 21 22 21
38 36 33 37 39 45 39 43 38 35 35 28 29 29 29 28 28 29 27 25 26 24
37 38 38 35 35 41 41 38 43 42 38 36 33 32 32 31 31 29 30 30 28 27
40 39 39 36 36 36 41 39 36 37 38 38 39 35 34 33 32 34 35 33 32 31
40 41 38 37 36 35 35 37 36 37 37 36 38 38 36 35 36 37 35 36 34 33
41 39 38 39 38 37 35 34 37 35 36 36 36 38 40 37 38 39 40 39 37 36
40 39 40 39 39 37 37 37 32 35 35 37 37 37 38 40 41 39 37 40 40 38
42 40 40 39 38 38 36 33 34 32 33 32 37 38 40 40 41 35 33 34 34 42

GFSNIL_925_spd_072.txt.gz
Wind_Speed
35 33 27 22 31 33 32 28 27 25 23 18 17 17 17 15 14 14 13 10 8 6
38 37 34 24 25 33 34 31 29 27 27 22 19 19 17 18 16 17 14 13 10 10
42 40 38 34 27 28 30 34 30 30 29 26 22 21 19 17 16 15 16 14 13 12
42 43 40 38 35 28 27 33 28 29 33 31 26 22 22 18 16 16 15 14 14 14
42 46 42 40 40 35 29 26 30 23 30 35 29 26 25 21 19 18 16 16 15 15
37 40 44 43 43 39 37 29 24 26 25 34 32 30 29 26 22 21 20 18 19 20
38 40 42 43 42 43 40 38 31 27 30 34 34 32 30 28 25 24 24 22 21 21
36 37 38 40 41 45 46 41 42 35 33 31 35 35 35 31 28 27 26 26 25 25
38 36 37 40 41 40 46 47 43 44 40 38 36 36 34 32 31 29 29 29 29 28
35 37 36 35 37 38 39 39 39 40 42 41 40 38 35 33 32 31 32 32 32 31
34 35 36 36 36 37 36 39 37 38 39 39 42 41 38 36 35 34 34 35 35 35
32 35 34 37 38 36 34 34 37 37 35 39 40 40 43 40 38 37 38 37 36 36
26 33 36 39 39 38 37 36 34 35 36 37 39 39 40 39 40 38 38 38 41 40
32 31 41 41 39 38 35 34 34 35 34 35 40 40 40 39 40 36 34 36 34 41

GFSNIL_925_spd_075.txt.gz
Wind_Speed
32 31 28 22 20 25 27 25 23 22 20 17 15 15 15 15 13 13 12 10 7 5
33 32 32 27 21 22 27 28 27 25 23 22 18 16 17 17 17 16 14 13 11 10
38 35 33 31 27 21 24 30 30 27 24 23 22 18 18 17 17 17 17 16 15 13
40 37 34 34 32 28 21 25 28 30 27 25 24 23 20 19 18 18 17 18 16 15
41 40 38 37 36 33 29 26 23 25 25 28 29 27 24 22 20 20 18 17 17 16
37 39 42 41 39 36 33 31 28 23 28 30 28 31 29 25 23 22 21 19 17 18
38 41 42 42 41 41 39 36 33 30 27 30 29 27 31 29 27 27 25 23 22 21
37 40 41 40 41 42 42 41 38 34 31 29 31 30 32 32 31 30 30 28 26 25
33 34 36 39 40 40 42 44 41 40 37 36 32 32 33 34 34 33 32 31 29 28
30 30 30 33 35 37 39 39 40 43 43 41 41 38 35 33 35 37 37 35 33 32
29 35 35 32 36 38 35 37 39 38 38 43 45 44 42 38 38 39 39 38 36 34
32 30 32 35 33 33 31 33 35 36 36 37 39 41 44 40 39 41 42 42 39 38
9 29 30 32 33 31 32 34 32 33 36 39 38 38 39 41 41 38 39 40 43 43
12 11 14 20 31 32 36 32 31 31 33 35 38 39 40 41 43 37 34 34 33 38

GFSNIL_925_spd_078.txt.gz
Wind_Speed
36 31 27 22 19 18 19 19 15 15 14 13 12 12 12 12 12 11 11 8 6 4
36 33 32 27 21 16 16 19 20 18 17 17 14 11 12 12 12 11 11 12 10 8
37 34 35 30 27 22 17 15 19 21 20 18 17 15 13 13 14 14 14 13 12 11
38 37 35 35 32 28 23 18 17 20 21 20 18 17 17 15 14 15 14 14 14 14
41 39 37 36 35 33 30 25 20 15 20 20 22 21 20 19 17 16 16 15 14 14
37 39 40 39 37 35 33 31 27 24 19 19 21 22 21 23 22 19 17 17 16 15
36 41 42 41 40 38 36 34 33 30 27 23 21 23 23 22 25 24 21 20 19 18
40 39 39 38 41 41 40 38 36 35 33 29 25 23 24 24 24 28 26 24 22 23
35 35 38 40 40 39 40 39 40 39 37 36 33 31 27 25 26 28 29 28 26 25
35 35 35 38 37 39 40 39 38 39 39 40 40 38 35 31 29 29 31 31 30 30
36 37 32 30 34 37 37 37 38 38 39 40 42 41 41 39 37 35 34 34 33 33
22 29 31 35 33 33 32 35 37 38 38 37 38 40 42 42 40 40 41 40 39 38
8 9 27 35 35 32 31 33 32 32 36 38 37 38 38 38 39 35 35 39 41 41
10 11 9 12 24 31 30 30 30 32 35 36 36 36 37 36 37 33 30 32 32 37

GFSNIL_925_spd_084.txt.gz
Wind_Speed
18 16 16 15 13 12 10 10 7 9 9 8 8 9 8 7 8 7 8 6 5 4
20 20 17 15 14 14 12 10 10 10 10 10 9 10 9 9 8 8 9 7 8 8
23 21 20 17 18 16 13 14 11 13 13 11 11 10 8 8 8 9 9 10 8 9
23 23 21 21 20 20 18 15 14 14 14 14 14 13 12 11 9 11 11 11 11 12
23 22 22 22 21 19 20 18 17 15 14 14 15 15 15 14 12 12 12 12 12 13
22 22 24 24 20 20 20 21 20 18 17 15 15 17 17 17 16 15 14 13 13 13
20 24 24 25 24 21 21 21 22 22 21 18 16 19 19 20 19 17 16 16 15 14
18 18 20 22 26 27 24 23 22 23 24 23 22 21 21 21 21 19 18 17 17 17
16 18 19 19 21 22 26 25 24 24 25 25 26 27 25 23 20 21 21 19 19 19
15 16 17 19 20 21 22 25 26 27 26 27 28 30 30 30 28 24 23 23 22 22
15 13 17 18 19 21 22 23 25 27 28 29 29 30 32 35 32 30 29 27 26 25
16 17 15 13 18 20 21 22 24 25 26 28 29 30 32 33 30 31 34 33 33 31
18 17 15 15 15 19 22 23 22 24 26 27 29 29 31 32 29 29 32 34 35 37
21 20 16 16 14 16 18 21 23 23 24 26 27 28 30 32 30 31 31 33 33 35

GFSNIL_925_spd_087.txt.gz
Wind_Speed
15 14 13 11 9 9 5 5 15 10 10 9 8 8 8 8 9 9 7 7 9 8
19 18 14 14 13 12 7 10 7 9 10 10 9 9 9 9 8 4 8 9 8 10
20 18 16 13 14 11 8 8 6 10 9 9 10 10 10 13 11 9 10 11 14 10
21 20 19 18 17 15 14 11 9 7 7 10 11 12 12 13 5 10 11 12 9 11
19 19 19 19 18 17 17 16 15 13 13 14 15 14 13 13 13 12 12 12 12 14
18 19 20 20 19 18 17 18 17 17 17 15 16 16 15 15 15 15 14 13 14 14
17 18 19 19 18 19 19 19 19 20 20 19 18 18 17 18 18 18 17 17 16 16
9 16 17 17 17 20 21 21 21 21 22 23 22 22 22 21 20 21 20 20 19 20
16 9 10 15 16 18 20 23 23 24 24 24 25 26 26 22 21 21 21 22 20 21
15 13 10 12 14 16 19 20 24 26 26 26 27 27 27 29 27 24 24 24 22 25
15 14 14 11 13 17 19 20 22 24 26 26 27 29 30 31 31 30 30 27 23 26
16 15 16 15 15 16 18 21 22 22 24 26 27 30 30 32 29 31 32 31 32 31
11 11 14 16 17 18 18 19 22 23 25 24 26 27 30 30 29 29 30 31 34 37
13 14 14 16 17 17 18 19 20 21 24 24 25 26 29 29 29 31 30 30 30 31